Weather History for Perryton, TX

Change the Weather History Date:

Wednesday, May 9, 2012

  Actual Average Record
Temperature  
Mean Temperature 60 °F -  
Max Temperature 78 °F 76 °F 98 °F (1966)
Min Temperature 41 °F 45 °F 35 °F (2003)
Degree Days  
Heating Degree Days 6    
Growing Degree Days 10 (Base 50)    
Moisture  
Dew Point 36 °F    
Average Humidity 47    
Maximum Humidity 87    
Minimum Humidity 18    
Precipitation  
Precipitation 0.00 in - - ()
Sea Level Pressure  
Sea Level Pressure 30.07 in    
Wind  
Wind Speed 7 mph (SSW)    
Max Wind Speed 14 mph    
Max Gust Speed 22 mph    
Visibility 10 miles    
Events      
Averages and records for this station are not official NWS values.
T = Trace of Precipitation, MM = Missing Value Source: NWS Daily Summary

Daily Weather History Graph

Daily Weather History Graph

Search for Another Location

Airport:

Trip Planner

Search our weather history database for the weather conditions in past years. The results will help you decide how hot, cold, wet, or windy it might be!

Date:

Astronomy

May. 09, 2012 Rise Set
Actual Time 6:41 AM CDT 8:38 PM CDT
Civil Twilight 6:12 AM CDT 9:06 PM CDT
Nautical Twilight 5:38 AM CDT 9:41 PM CDT
Astronomical Twilight 5:01 AM CDT 10:18 PM CDT
Moon No Moon Rise 10:00 AM CDT (5/9)
Length of Visible Light 14h 53m
Length of Day
13h 57m
Waning Gibbous, 82% of the Moon is Illuminated
May 9
Waning Gibbous
May 12
Last Quarter
May 20
New
May 28
First Quarter
Jun 4
Full

Hourly Weather History & Observations

Time (CDT) Temp. Windchill Dew Point Humidity Pressure Visibility Wind Dir Wind Speed Gust Speed Precip Events Conditions
12:15 AM 46.4 °F 42.4 °F 39.2 °F 76% 30.15 in 10.0 mi SW 8.1 mph - N/A   Clear
12:35 AM 46.4 °F 42.4 °F 39.2 °F 76% 30.14 in 10.0 mi SSW 8.1 mph - N/A   Clear
12:55 AM 44.6 °F 40.2 °F 37.4 °F 76% 30.14 in 10.0 mi SSW 8.1 mph - N/A   Clear
1:15 AM 46.4 °F 42.4 °F 37.4 °F 71% 30.14 in 10.0 mi SW 8.1 mph - N/A   Clear
1:35 AM 46.4 °F 42.9 °F 39.2 °F 76% 30.14 in 10.0 mi SW 6.9 mph - N/A   Clear
1:55 AM 44.6 °F 40.7 °F 37.4 °F 76% 30.13 in 10.0 mi SW 6.9 mph - N/A   Clear
2:15 AM 44.6 °F 41.4 °F 37.4 °F 76% 30.13 in 10.0 mi SW 5.8 mph - N/A   Clear
2:35 AM 44.6 °F 40.2 °F 37.4 °F 76% 30.12 in 10.0 mi SW 8.1 mph - N/A   Clear
2:55 AM 44.6 °F 41.4 °F 39.2 °F 81% 30.12 in 10.0 mi SW 5.8 mph - N/A   Clear
3:15 AM 44.6 °F 41.4 °F 37.4 °F 76% 30.12 in 10.0 mi SW 5.8 mph - N/A   Clear
3:35 AM 42.8 °F 40.1 °F 37.4 °F 81% 30.12 in 10.0 mi SW 4.6 mph - N/A   Clear
3:55 AM 42.8 °F 38.6 °F 37.4 °F 81% 30.12 in 10.0 mi SW 6.9 mph - N/A   Clear
4:15 AM 42.8 °F 38.6 °F 37.4 °F 81% 30.12 in 10.0 mi SW 6.9 mph - N/A   Clear
4:35 AM 42.8 °F 38.6 °F 37.4 °F 81% 30.12 in 10.0 mi SW 6.9 mph - N/A   Clear
4:55 AM 42.8 °F 38.6 °F 37.4 °F 81% 30.12 in 10.0 mi SW 6.9 mph - N/A   Clear
5:15 AM 42.8 °F 38.6 °F 37.4 °F 81% 30.12 in 10.0 mi SW 6.9 mph - N/A   Clear
5:35 AM 42.8 °F 38.0 °F 37.4 °F 81% 30.13 in 10.0 mi SW 8.1 mph - N/A   Clear
5:55 AM 42.8 °F 38.6 °F 37.4 °F 81% 30.13 in 10.0 mi SW 6.9 mph - N/A   Clear
6:15 AM 42.8 °F 40.1 °F 37.4 °F 81% 30.13 in 10.0 mi SW 4.6 mph - N/A   Clear
6:35 AM 41.0 °F 38.0 °F 37.4 °F 87% 30.14 in 10.0 mi SW 4.6 mph - N/A   Clear
6:55 AM 41.0 °F 38.0 °F 37.4 °F 87% 30.14 in 10.0 mi WSW 4.6 mph - N/A   Clear
7:15 AM 42.8 °F 40.1 °F 37.4 °F 81% 30.14 in 10.0 mi WSW 4.6 mph - N/A   Clear
7:35 AM 46.4 °F 45.2 °F 41.0 °F 81% 30.14 in 10.0 mi WSW 3.5 mph - N/A   Clear
7:55 AM 51.8 °F - 42.8 °F 71% 30.14 in 10.0 mi West 5.8 mph - N/A   Clear
8:15 AM 55.4 °F - 41.0 °F 58% 30.15 in 10.0 mi West 9.2 mph - N/A   Clear
8:35 AM 59.0 °F - 42.8 °F 55% 30.14 in 10.0 mi West 9.2 mph - N/A   Clear
8:55 AM 60.8 °F - 42.8 °F 52% 30.15 in 10.0 mi West 9.2 mph - N/A   Clear
9:15 AM 64.4 °F - 42.8 °F 45% 30.15 in 10.0 mi West 9.2 mph - N/A   Clear
9:35 AM 68.0 °F - 41.0 °F 37% 30.15 in 10.0 mi West 11.5 mph - N/A   Clear
9:55 AM 69.8 °F - 41.0 °F 35% 30.15 in 10.0 mi West 8.1 mph - N/A   Clear
10:15 AM 69.8 °F - 39.2 °F 33% 30.15 in 10.0 mi West 8.1 mph - N/A   Clear
10:35 AM 69.8 °F - 37.4 °F 31% 30.14 in 7.0 mi WSW 6.9 mph - N/A   Clear
10:55 AM 71.6 °F - 35.6 °F 27% 30.14 in 10.0 mi WSW 9.2 mph - N/A   Clear
11:15 AM 71.6 °F - 33.8 °F 25% 30.14 in 10.0 mi West 6.9 mph - N/A   Clear
11:35 AM 73.4 °F - 33.8 °F 23% 30.14 in 10.0 mi Calm Calm - N/A   Clear
11:55 AM 71.6 °F - 32.0 °F 23% 30.13 in 10.0 mi WSW 5.8 mph - N/A   Clear
12:15 PM 73.4 °F - 32.0 °F 22% 30.12 in 10.0 mi Calm Calm - N/A   Clear
12:35 PM 75.2 °F - 33.8 °F 22% 30.11 in 10.0 mi WSW 4.6 mph - N/A   Clear
12:55 PM 75.2 °F - 33.8 °F 22% 30.10 in 10.0 mi South 5.8 mph - N/A   Clear
1:15 PM 77.0 °F - 32.0 °F 19% 30.09 in 10.0 mi WSW 6.9 mph - N/A   Clear
1:35 PM 75.2 °F - 32.0 °F 21% 30.08 in 10.0 mi SSE 4.6 mph - N/A   Clear
1:55 PM 75.2 °F - 33.8 °F 22% 30.07 in 10.0 mi South 10.4 mph - N/A   Clear
2:15 PM 77.0 °F - 32.0 °F 19% 30.06 in 10.0 mi Calm Calm - N/A   Clear
2:35 PM 78.8 °F - 33.8 °F 20% 30.05 in 10.0 mi SSW 12.7 mph 21.9 mph N/A   Clear
2:55 PM 78.8 °F - 33.8 °F 20% 30.05 in 10.0 mi South 10.4 mph - N/A   Clear
3:15 PM 78.8 °F - 33.8 °F 20% 30.04 in 10.0 mi South 10.4 mph 16.1 mph N/A   Clear
3:35 PM 78.8 °F - 32.0 °F 18% 30.03 in 10.0 mi SW 6.9 mph - N/A   Clear
4:15 PM 78.8 °F - 32.0 °F 18% 30.01 in 10.0 mi SE 10.4 mph 18.4 mph N/A   Clear
4:35 PM 78.8 °F - 32.0 °F 18% 30.00 in 10.0 mi SSW 10.4 mph 19.6 mph N/A   Clear
4:55 PM 78.8 °F - 32.0 °F 18% 29.99 in 10.0 mi South 9.2 mph - N/A   Clear
5:15 PM 78.8 °F - 32.0 °F 18% 29.98 in 10.0 mi SSW 12.7 mph 18.4 mph N/A   Clear
5:35 PM 78.8 °F - 32.0 °F 18% 29.98 in 10.0 mi SSE 5.8 mph - N/A   Clear
5:55 PM 78.8 °F - 32.0 °F 18% 29.98 in 10.0 mi South 10.4 mph - N/A   Clear
6:15 PM 78.8 °F - 32.0 °F 18% 29.97 in 10.0 mi South 13.8 mph - N/A   Clear
6:35 PM 78.8 °F - 32.0 °F 18% 29.97 in 10.0 mi South 6.9 mph - N/A   Clear
6:55 PM 77.0 °F - 32.0 °F 19% 29.97 in 10.0 mi SSW 8.1 mph - N/A   Clear
7:15 PM 77.0 °F - 32.0 °F 19% 29.96 in 10.0 mi South 8.1 mph - N/A   Clear
7:35 PM 75.2 °F - 32.0 °F 21% 29.96 in 10.0 mi SSE 8.1 mph - N/A   Clear
7:55 PM 73.4 °F - 32.0 °F 22% 29.96 in 10.0 mi South 6.9 mph - N/A   Clear
8:15 PM 69.8 °F - 33.8 °F 27% 29.96 in 10.0 mi South 8.1 mph - N/A   Clear
8:35 PM 64.4 °F - 35.6 °F 34% 29.96 in 10.0 mi SSE 6.9 mph - N/A   Clear
8:55 PM 62.6 °F - 35.6 °F 37% 29.97 in 10.0 mi SE 8.1 mph - N/A   Clear
9:15 PM 60.8 °F - 37.4 °F 42% 29.97 in 10.0 mi SE 8.1 mph - N/A   Clear
9:35 PM 60.8 °F - 37.4 °F 42% 29.98 in 10.0 mi SSE 6.9 mph - N/A   Clear
9:55 PM 59.0 °F - 37.4 °F 45% 29.98 in 10.0 mi SSE 8.1 mph - N/A   Clear
10:35 PM 53.6 °F - 37.4 °F 54% 29.98 in 7.0 mi SSE 9.2 mph - N/A   Clear
10:55 PM 53.6 °F - 39.2 °F 58% 29.98 in 7.0 mi SSE 8.1 mph - N/A   Clear
11:15 PM 53.6 °F - 37.4 °F 54% 29.98 in 10.0 mi South 8.1 mph - N/A   Clear
11:35 PM 53.6 °F - 37.4 °F 54% 29.98 in 10.0 mi South 8.1 mph - N/A   Clear
11:55 PM 53.6 °F - 37.4 °F 54% 29.98 in 10.0 mi South 6.9 mph - N/A   Clear